Regional Weather Roundup
Issued by NWS

Home | Current Version | Previous Version | Text Only | Print | Product List | Glossary On
Versions: 1 2 3 4 5 6 7 8 9 10 11 12 13 14 15 16 17 18 19 20 21 22 23 24 25 26 27 28 29 30 31 32 33 34 35 36 37 38 39 40 41 42 43 44 45 46 47 48 49 50
000
ASHW40 PHFO 240012
RWRHI

WEATHER ROUNDUP FOR HAWAII
NATIONAL WEATHER SERVICE HONOLULU HI
200 PM HST MON APR 23 2018

THIS IS AN AUTOMATED REPORT THAT HAS NOT BEEN QUALITY CONTROLLED.

NOTE..."FAIR" INDICATES FEW OR NO CLOUDS BELOW 12,000 FEET WITH NO
SIGNIFICANT WEATHER AND/OR OBSTRUCTIONS TO VISIBILITY.

* - THESE SITES REPORT LIMITED FIELDS
# - BUOY DATA PROVIDED BY PACIFIC ISLANDS OCEAN OBSERVING SYSTEM.

HIZ001>004-240100-
KAUAI-NIIHAU-

CITY           SKY/WX    TMP DP  RH WIND       PRES   REMARKS
LIHUE APT      PTSUNNY   79  69  71 NE17      30.08F
PORT ALLEN*      N/A     81 N/A N/A NE20G26     N/A
POIPU*           N/A     79 N/A N/A NE10G22     N/A
PRINCEVILLE*     N/A     75 N/A N/A E10G18      N/A
KOKOLE POINT*  NOT AVBL
MOLOAA DAIRY*    N/A     77  70  78 E3G12       N/A
WAIMEA HTS*    NOT AVBL
PUU OPAE*      NOT AVBL
PUU LUA*       NOT AVBL
MAKAHA RIDGE*  NOT AVBL
$$

HIZ005>011-240100-
OAHU-

CITY           SKY/WX    TMP DP  RH WIND       PRES   REMARKS
HONOLULU       MOSUNNY   83  62  49 NE17G25   30.03F
KALAELOA       SUNNY     84  61  45 NE15G22   30.03F
KANEOHE MCB    MOSUNNY   80  68  66 NE12G21   30.03F
WHEELER FIELD  FAIR      77  61  56 NE13G18   30.06F
BELLOWS*       NOT AVBL
KAHUKU*        NOT AVBL
WHEELER*       NOT AVBL
WAIANAE HARBOR NOT AVBL
DILLINGHAM*    NOT AVBL
KAHUKU TRN*      N/A     79  66  65 W13G29      N/A
KAWAILOA*        N/A     72  61  68 E12G26      N/A
KII*             N/A     79  66  65 NE18G25     N/A
MAKUA RANGE*     N/A     82  59  44 NE14G35     N/A
OAHU FOREST NW NOT AVBL
SCHOFIELD BRK*   N/A     63  45  51 E12         N/A
SCHOFIELD S*   NOT AVBL
WAIANAE VLY*   NOT AVBL
KUAOKALA*      NOT AVBL
HONOULIUULI*   NOT AVBL
MOKUOLOE IS*   NOT AVBL
PALEHUA*       NOT AVBL
WAIAWA PHB*    NOT AVBL
$$

HIZ012>013-240100-
MOLOKAI-

CITY           SKY/WX    TMP DP  RH WIND       PRES   REMARKS
MOLOKAI AIRPT  MOSUNNY   81  65  58 NE21G28   30.05F
KALAUPAPA      NOT AVBL
MAKAPULAPAI*   NOT AVBL
MOLOKAI 1*     NOT AVBL
PUU ALII*      NOT AVBL
$$

HIZ016-240100-
KAHOOLAWE-

CITY           SKY/WX    TMP DP  RH WIND       PRES   REMARKS
KAHOOLAWE*     NOT AVBL
HAKIOAWA*      NOT AVBL
HONOKANAIA*    NOT AVBL
KANELOA*         N/A     79  66  65 E21G33    30.09F
KEALIALALO*    NOT AVBL
LUA MAKIKA*    NOT AVBL
$$

HIZ014>015-240100-
LANAI-

CITY           SKY/WX    TMP DP  RH WIND       PRES   REMARKS
LANAI CITY     FAIR      76  66  71 NE21G28   30.06F
LANAI 1*       NOT AVBL
$$

HIZ017>028-240100-
MAUI-

CITY           SKY/WX    TMP DP  RH WIND       PRES   REMARKS
KAHULUI        MOSUNNY   80  70  71 NE30G36   30.02F
KAPALUA-W MAUI MOSUNNY   75  66  73 NE17G25   30.05F
HANA AIRPORT   NOT AVBL
HANA*            N/A     75 N/A N/A NE12        N/A
HALEAKALA SUMM   N/A     54  30  40 NE9         N/A
MAALAEA BAY*   NOT AVBL
HALEAKALA*     NOT AVBL
KAUPO GAP*     NOT AVBL
KULA 1*          N/A     56  55  97 W3G10       N/A
$$

HIZ023>026-240100-
BIG ISLAND OF HAWAII COAST AND LOWER SLOPES-

CITY           SKY/WX    TMP DP  RH WIND       PRES   REMARKS
KAILUA KONA    CLOUDY    82  64  54 W9        29.97F
HILO           PTSUNNY   77  70  79 NE15      30.04F
HONOKAA*         N/A     68 N/A N/A VRB1        N/A
KAWAIHAE MWT*    N/A     84 N/A N/A SW13G18     N/A
KAWAIHAE*      NOT AVBL
SOUTH POINT*     N/A     75 N/A N/A N20G29      N/A
UPOLU AIRPORT* NOT AVBL
KAMUELA*       PTCLDY    72  64  78 NE22      30.08F
HAKALAU*         N/A     58  57  98 E5G10       N/A
KALOKO-HONOKO* NOT AVBL
PALI 2*          N/A     77  59  53 N20G31      N/A
KEALAKOMO*       N/A     82  68  61 E23G32      N/A
KAUPULEHU*     NOT AVBL
KAPAPALA*      NOT AVBL
LOWER KAHUKU*  NOT AVBL
PUHE CS*       NOT AVBL
PUHO CS*       NOT AVBL
PTA KEAMUKU*     N/A    N/A N/A N/A NE23G33     N/A
WAIKOLOA*      NOT AVBL
$$

HIZ027>028-240100-
BIG ISLAND OF HAWAII INTERIOR AND SUMMMITS-

CITY           SKY/WX    TMP DP  RH WIND       PRES   REMARKS
BRADSHAW FIELD SUNNY     70  49  47 S8        30.28F
MK VISITOR CEN   N/A     59  36  41 SE10        N/A
MAUNA KEA*       N/A     45  14  29 NE14        N/A
MAUNA LOA*       N/A    N/A N/A N/A MISG        N/A
MAUNA LOA 1*   NOT AVBL
PTA KIPUKA*      N/A     77  64  65 SE9G18      N/A
PTA RANGE 17*    N/A     48  37  66 E13G18      N/A
PTA WEST*        N/A     70  57  64 NW8G21      N/A
NENE CABIN*    NOT AVBL
AHUMOA*        NOT AVBL
PTA PORTABLE*  NOT AVBL
PUU MALI*        N/A     63  54  72 NE31G43     N/A
$$

HIC003-240100-
NORTHWEST ISLANDS-

CITY           SKY/WX    TMP DP  RH WIND       PRES   REMARKS
MIDWAY ISLAND  SUNNY     75  68  78 E9        30.22F
MIDWAY NOS*    NOT AVBL
FRENCH FRIGATE NOT AVBL
$$

PHZ110>124-180-240100-
BUOY REPORTS

STATION/POSITION TIME  TEMP    WIND        PRES    WAVE   SWELL
                       AIR SEA DIR/SP/G            HT/PER HT/DIR
                 (UTC) (F)     (DEG/KT/KT) (MB)    (FT/S) (FT/D)
BUOY 51001       2350   81 81   70/ 19/ 25 1012.2F  11/10   7
BUOY 51101       2350   73 74   80/ 12/ 14 1020.2F   7/14   7
BUOY 51100       NOT AVBL
BUOY 51002       2350   78 79   60/ 17/ 21 1014.3F  10/ 9   7/ 90
BUOY 51003       2350   77 79   50/ 16/ 19 1015.4F   7/ 8   5/280
BUOY 51004       2350   77 78   60/ 17/ 21   N/A     8/ 9   5/ 90
WAIMEA BAY#      NOT AVBL
MOKAPU POINT#    2334      75                N/A     7/ 7   2/320
LANAI#           NOT AVBL
BARBERS PT 2#    NOT AVBL
PAUWELA#         2330      76                N/A     6/14   3/320
HILO#            2357      77                N/A     7/ 9   3/350
KANEOHE BAY#     NOT AVBL
KANEOHE BAY 2#   NOT AVBL
HANALEI#         2352      77                N/A     7/14   5/310
KAHULUI HARBOR   2348      77   60/ 15/ 24 1017.0F
HONOLULU HARBOR  2348      77   70/  5/ 12 1016.2F
PEARL HARBOR#    2330      77                N/A     3/13   2/160
KILO NALU        NOT AVBL
HILO HARBOR      2348      77  360/  6/ 11 1016.9F
MOKUOLOE         2336   78 78   70/ 14/ 18 1017.9F
NAWILIWILI       2348      78   50/ 17/ 21 1018.2F
WHOTS BUOY       NOT AVBL
BUOY 51028       NOT AVBL
$$

......................KEY........................................
  SKY/WX - SKY CONDITIONS/PRESENT WEATHER
  TMP    - TEMPERATURE IN FAHRENHEIT
  DWPT   - DEWPOINT IN FAHRENHEIT
  RH     - RELATIVE HUMIDITY IN PERCENT
  WIND   - DIRECTION AND SPEED /MPH FOR ISLANDS...KTS FOR BUOYS/
  PRES   - MEAN SEA LEVEL PRESSURE IN INCHES OF HG
  VSB    - VISIBILITY IN MILES
  HX     - HEAT INDEX
  WCI    - WIND CHILL INDEX
  VRB    - VARIABLE WIND DIRECTION
  N/A    - NOT AVAILABLE




USA.gov is the U.S. government's official web portal to all federal, state and local government web resources and services.